STARLINK-4446, 53505

Orbit data source: Space-Track

STARLINK-4446, 53505 is a payload satellite owned by SpaceX/Seattle (US) in SSO that was launched on Fri, 12 Aug 2022 UTC via an FALCON 9 launch vehicle from the Air Force Western Test Range (AFWTR). Payload-class satellites include a variety of spacecraft equipped with specific instruments for various scientific and technological missions. These include communications satellites like Starlink; space stations such as the ISS; scientific satellites like the Hubble; Earth observation satellites from companies like Planet Labs, Umbra, and HawkEye 360; GPS; miniature CubeSats for education and research; and military/defense satellites.

Loading next visibility...
Identifier
53505, 2022-099AS
Orbit
SSO
Country
Flag of USUS
Related business
Manufacturer
SpaceX/Seattle
Mission
Operational Commercial Communications
Bus & Motor
STARLINK, Unknown motor
Mass
300 kg wet, ~275 kg dry
Launch date (UTC)
2022-08-12 (3 years ago)
Launch vehicle
FALCON 9
Launch site
Air Force Western Test Range (AFWTR)
Object type
Payload
Rocket body
Debris
Shape & HBR
Box + 1 Pan, 10.1 m
Radar Cross Section
13.562 m², Large (>1 m²)

Expand to show TLE details & history
Last TLE update: 12 hours ago

TLE from 12 hours ago
0 STARLINK-4446
1 53505U 22099AS  25346.88517692  .00001598  00000-0  12888-3 0  9999
2 53505  97.6053 105.2361 0000957 160.2893 199.8369 15.01269989182969
Epoch: 2025-12-12T21:14Z
TLE epoch observation values (Epoch: 2025-12-12T21:14:39.285Z)
Latitude
-0°
Longitude
64.75203°
Altitude
566.663 km
Speed
7.577 km/s
True Right ascension
07h 00m 56s
True Declination
0° 00' 00"
Sunlit
Object was in full shadow at epoch
Visualization orbit readout
Latitude
Unknown
Longitude
Unknown
Altitude
Unknown
Speed
Unknown
Apparent Right ascension
Unknown
Apparent Declination
Unknown
Sunlit
N/A
Visualization observer readout
Local Sidereal Time
07:35:03
Azimuth
Unknown
Elevation
Unknown
Doppler factor
Unknown
Orbital elements
Apogee altitude
560.642 km
Perigee altitude
559.315 km
Semi-major axis
6,938.115 km
Eccentricity
0.0001
Inclination
97.6053°
RAAN
105.2361°
Arg. of periapsis
160.2893°
True anomaly
199.83318°
Mean anomaly
199.8369°
Eccentric anomaly
199.83504°
Mean motion
3.75561 °/min
Orbital period
95.86 mins
BSTAR
0.00012888
Loading maneuver chart data...
Computing Atmospheric mass density...
Loading historical data...
Loading historical data...
Loading historical data...
Loading historical data...
Loading historical data...
Loading historical data...
Loading historical data...

Documentation

Showing up to 5 results
|